Location: Pedholt
(56.0260°N, 10.2097°E)
Time: 06:30:16
(UTC+00:00)

DELTA 2 DEB (DPAF) - Pass Details

Date: 14 July 2020
Orbit: 641 x 647 km, 98.3° (Epoch: 14 August)

Event Time Altitude Azimuth Distance (km) Brightness Sun altitude
Exits shadow 00:46:51 12° 176° (S) 1,913 6.0 -10.4°
Maximum altitude 00:50:57 63° 257° (WSW) 727 4.3 -10.2°
Drops below altitude 10° 00:55:24 10° 339° (NNW) 2,056 7.5 -10.0°
Sets 00:57:38 0° 343° (NNW) 2,970 8.4 -9.9°
